Regional Weather Roundup
Issued by NWS

Home | Current Version | Previous Version | Text Only | Print | Product List | Glossary Off
Versions: 1 2 3 4 5 6 7 8 9 10 11 12 13 14 15 16 17 18 19 20 21 22 23 24 25 26 27 28 29 30 31 32 33 34 35 36 37 38 39 40 41 42 43 44 45 46 47 48 49 50

000
ASUS43 KOAX 241910
RWRNE

WEATHER ROUNDUP FOR NEBRASKA
NATIONAL WEATHER SERVICE OMAHA NE
200 PM CDT SUN JUL 24 2016

NOTES: SATELLITE DATA IS BEING USED TO AUGMENT CLOUD COVER ABOVE
       12000 FEET.
       "FAIR" INDICATES FEW OR NO CLOUDS BELOW 12,000 FEET WITH NO
       SIGNIFICANT WEATHER AND/OR OBSTRUCTIONS TO VISIBILITY.

  * THESE STATIONS DO NOT REPORT WEATHER SUCH AS RAIN...SNOW OR FOG.

NEZ001>004-019>022-054>056-242000-
NEBRASKA PANHANDLE

CITY           SKY/WX    TMP DP  RH WIND       PRES   REMARKS
SCOTTSBLUFF    SUNNY     85  50  29 SE20G26   30.15F
ALLIANCE       MOSUNNY   80  52  37 E15G24    30.17F
CHADRON        SUNNY     86  42  21 SE13G22   30.13F
KIMBALL        MOSUNNY   84  58  42 SE13G22   30.20F
SIDNEY         SUNNY     84  54  35 SE13      30.19F
$$

NEZ057>060-069>072-079>082-242000-
SOUTHWEST NEBRASKA

CITY           SKY/WX    TMP DP  RH WIND       PRES   REMARKS
NORTH PLATTE   SUNNY     81  59  47 E16G24    30.09F
IMPERIAL       SUNNY     85  50  29 E24       30.08F
LEXINGTON      SUNNY     83  57  40 NE13      30.10F
MCCOOK         SUNNY     87  57  35 NE17      30.08S
OGALLALA       CLOUDY    83  50  31 E17G23    30.13R
$$

NEZ005>010-023>029-035>040-094-242000-
NORTH CENTRAL NEBRASKA

CITY           SKY/WX    TMP DP  RH WIND       PRES   REMARKS
VALENTINE      MOSUNNY   84  48  28 MISG      30.13S
AINSWORTH      CLOUDY    81  58  46 E3        30.14R
BROKEN BOW     SUNNY     81  63  54 NE8       30.11F
O`NEILL        CLOUDY    80  59  49 N7        30.12F
ORD            CLOUDY    83  60  45 VRB6      30.08F
THEDFORD       CLOUDY    83  52  34 E8        30.14F
$$

NEZ041-046>049-061>064-073>077-083>087-242000-
SOUTH CENTRAL NEBRASKA

CITY           SKY/WX    TMP DP  RH WIND       PRES   REMARKS
GRAND ISLAND   MOSUNNY   86  57  37 NE9       30.08S
AURORA         CLOUDY    82  62  49 NE9       30.07S
HASTINGS       CLOUDY    84  63  49 N15       30.06F
HEBRON         CLOUDY    77  68  72 NE7       30.01R
HOLDREGE       SUNNY     84  58  41 N18       30.08S
KEARNEY *      SUNNY     86  55  35 NE17G23   30.08F
YORK           CLOUDY    81  64  57 N9        30.06S
$$

NEZ011>018-030>034-042>045-242000-
NORTHEAST NEBRASKA

CITY           SKY/WX    TMP DP  RH WIND       PRES   REMARKS
NORFOLK        CLOUDY    83  62  49 NW15      30.06S
ALBION         CLOUDY    81  67  63 N8        30.08F
BLAIR          CLOUDY    81  68  63 N7        30.00F
FREMONT        CLOUDY    83  62  48 N7        30.02S
TEKAMAH        CLOUDY    86  63  45 N12       30.00R
WAYNE          CLOUDY    83  65  54 NW9       30.07R
$$

NEZ050>053-065>068-078-088>093-242000-
SOUTHEAST NEBRASKA

CITY           SKY/WX    TMP DP  RH WIND       PRES   REMARKS
LINCOLN        PTSUNNY   82  66  58 N10       30.02R
OMAHA EPPLEY   CLOUDY    83  67  58 N9        29.97F
BEATRICE       PTSUNNY   79  65  61 N9        30.00S
FALLS CITY     CLOUDY    84  78  82 N7        29.94S HX  95
NEBRASKA CITY  CLOUDY    84  65  54 N9        29.98R
PLATTSMOUTH    CLOUDY    84  66  54 NE6       29.99S
$$

NEZ044-045-051>053-067-242000-
OMAHA AREA

CITY           SKY/WX    TMP DP  RH WIND       PRES   REMARKS
OMAHA EPPLEY   CLOUDY    83  67  58 N9        29.97F
BLAIR          CLOUDY    81  68  63 N7        30.00F
FREMONT        CLOUDY    83  62  48 N7        30.02S
MILLARD        CLOUDY    83  65  54 N3        29.99R
OFFUTT AFB     CLOUDY    85  66  53 N9        29.98R
PLATTSMOUTH    CLOUDY    84  66  54 NE6       29.99S
WAHOO          FAIR      82  65  56 N8        30.00S
$$



USA.gov is the U.S. government's official web portal to all federal, state and local government web resources and services.